This is the latest recevied weather packets stored in our database for station/object KD0ISH. If no packets are shown the sender has not sent any weather packets the latest 10 day(s).
| Time | Temp. | Humidity | Pressure | Rain* | Wind** | Luminosity | Snow |
|---|---|---|---|---|---|---|---|
| 1777747383 | 17.22° C | 45% | 1022 hPa | 0 mm | - | 722 W/m² | - |
| 1777747080 | 16.67° C | 46% | 1022 hPa | 0 mm | - | 709 W/m² | - |
| 1777746776 | 16.67° C | 51% | 1022 hPa | 0 mm | - | 272 W/m² | - |
| 1777746472 | 17.22° C | 49% | 1022 hPa | 0 mm | - | 757 W/m² | - |
| 1777746168 | 16.67° C | 45% | 1022 hPa | 0 mm | - | 789 W/m² | - |
| 1777745864 | 15.56° C | 50% | 1022.2 hPa | 0 mm | - | 684 W/m² | - |
| 1777745563 | 15.56° C | 50% | 1022.2 hPa | 0 mm | - | 98 W/m² | - |
| 1777745261 | 16.11° C | 50% | 1022.2 hPa | 0 mm | - | 114 W/m² | - |
| 1777744958 | 16.67° C | 51% | 1022.2 hPa | 0 mm | - | 129 W/m² | - |
| 1777744657 | 16.67° C | 48% | 1022.5 hPa | 0 mm | - | 637 W/m² | - |
| 1777744352 | 17.22° C | 49% | 1022.3 hPa | 0 mm | - | 108 W/m² | - |
| 1777744050 | 16.11° C | 54% | 1022.4 hPa | 0 mm | - | 543 W/m² | - |
| 1777743747 | 16.11° C | 54% | 1022.4 hPa | 0 mm | - | 139 W/m² | - |
| 1777743444 | 16.11° C | 48% | 1022.4 hPa | 0 mm | - | 128 W/m² | - |
| 1777743141 | 15.56° C | 52% | 1022.4 hPa | 0 mm | - | 129 W/m² | - |
| 1777742840 | 15.56° C | 53% | 1022.4 hPa | 0 mm | - | 110 W/m² | - |
| 1777742535 | 16.67° C | 51% | 1022.5 hPa | 0 mm | - | 160 W/m² | - |
| 1777742231 | 15.56° C | 54% | 1022.5 hPa | 0 mm | - | 198 W/m² | - |
| 1777741928 | 15.56° C | 50% | 1022.3 hPa | 0 mm | - | 120 W/m² | - |
| 1777741625 | 15.56° C | 49% | 1022.4 hPa | 0 mm | - | 116 W/m² | - |
| 1777741322 | 15° C | 53% | 1022.7 hPa | 0 mm | - | 227 W/m² | - |
| 1777741018 | 14.44° C | 56% | 1022.7 hPa | 0 mm | - | 90 W/m² | - |
| 1777740715 | 15° C | 56% | 1022.8 hPa | 0 mm | - | 89 W/m² | - |
| 1777740411 | 15° C | 53% | 1022.7 hPa | 0 mm | - | 144 W/m² | - |
| 1777740109 | 15° C | 54% | 1022.7 hPa | 0 mm | - | 111 W/m² | - |
* Rain latest hour (hover to see other rain measurements)
** Current wind speed in m/s (hover to see current wind gust speed)